Regional Weather Roundup
Issued by NWS

Home | Current Version | Previous Version | Text Only | Print | Product List | Glossary Off
Versions: 1 2 3 4 5 6 7 8 9 10 11 12 13 14 15 16 17 18 19 20 21 22 23 24 25 26 27 28 29 30 31 32 33 34 35 36 37 38 39 40 41 42 43 44 45 46 47 48 49 50

070
ASUS43 KDTX 270610
RWRMI
MICHIGAN HOURLY REGIONAL WEATHER ROUNDUP
NATIONAL WEATHER SERVICE DETROIT/PONTIAC MI
200 AM EDT THU JUL 27 2017

NOTE: "FAIR" INDICATES FEW OR NO CLOUDS BELOW 12,000 FEET WITH NO
SIGNIFICANT WEATHER AND/OR OBSTRUCTION TO VISIBILITY.

MIZ047>049-052>055-059>063-066>070-074>076-081>083-270700-
SOUTHEAST LOWER MICHIGAN

CITY           SKY/WX    TMP DP  RH WIND       PRES   REMARKS
ADRIAN         MOCLDY    67  63  87 CALM      30.00F
6HR MIN TEMP:  67; 6HR MAX TEMP:  77;

ALMA           CLOUDY    71  64  78 SW9       29.97F
ANN ARBOR      PTCLDY    64  63  96 CALM      30.00F
BAD AXE        CLOUDY    68  66  93 CALM      29.98S
6HR MIN TEMP:  67; 6HR MAX TEMP:  70;

CARO           PTCLDY    67  65  90 CALM      29.98R
DETROIT CITY   MOCLDY    73  68  84 S6        29.99F
6HR MIN TEMP:  73; 6HR MAX TEMP:  78;

DETROIT        CLOUDY    71  68  90 S3        30.00F
6HR MIN TEMP:  71; 6HR MAX TEMP:  78;

FLINT          MOCLDY    71  62  73 SW5       29.99S
6HR MIN TEMP:  71; 6HR MAX TEMP:  77;

GROSSE ILE     CLOUDY    74  69  86 S8        29.98F
6HR MIN TEMP:  73; 6HR MAX TEMP:  75;

HILLSDALE      CLOUDY    66  63  88 CALM      30.00F
HOWELL         PTCLDY    67  63  85 CALM      30.00F
6HR MIN TEMP:  67; 6HR MAX TEMP:  76;


CITY           SKY/WX    TMP DP  RH WIND       PRES   REMARKS
JACKSON        MOCLDY    69  62  78 CALM      30.00F
6HR MIN TEMP:  68; 6HR MAX TEMP:  79;

LAMBERTVILLE   CLOUDY    67  64  91 CALM      29.99F
6HR MIN TEMP:  66; 6HR MAX TEMP:  77;

LANSING        CLOUDY    72  62  71 S5        29.99F
6HR MIN TEMP:  71; 6HR MAX TEMP:  78;

LAPEER         CLOUDY    70  64  81 SE6       29.99F
6HR MIN TEMP:  69; 6HR MAX TEMP:  77;

MASON          CLOUDY    67  64  87 S3        29.99F
MONROE         MOCLDY    69  66  89 CALM      29.99F
6HR MIN TEMP:  69; 6HR MAX TEMP:  74;

MT. CLEMENS    CLOUDY    71  65  80 S5        29.98F
6HR MIN TEMP:  70; 6HR MAX TEMP:  75;

PONTIAC        PTCLDY    71  66  84 S3        29.99F
6HR MIN TEMP:  71; 6HR MAX TEMP:  77; 6HR PCP: TRACE;

PORT HOPE        N/A     68  66  93 CALM      29.96S
6HR MIN TEMP:  68; 6HR MAX TEMP:  70; 6HR PCP:  0.06;

PORT HURON     CLOUDY    70  66  88 SW3       29.99F
TRI CITIES     PTCLDY    71  68  90 SW3       29.98S
6HR MIN TEMP:  71; 6HR MAX TEMP:  73; 6HR PCP:  0.04;

MIDLAND        MOCLDY    68  68  98 CALM      29.98R
6HR MIN TEMP:  68; 6HR MAX TEMP:  72; 6HR PCP:  0.06;

TROY           CLOUDY    73  66  80 SW5       30.02S
SAGINAW HB     CLOUDY    70  64  83 SW3       29.97S
$$
MIZ043>046-050>051-056>058-064>065-071>073-077>080-270700-
SOUTHWEST LOWER MICHIGAN

CITY           SKY/WX    TMP DP  RH WIND       PRES   REMARKS
BATTLE CREEK   CLOUDY    71  65  81 S6        29.98F
6HR MIN TEMP:  71; 6HR MAX TEMP:  79;

BENTON HARBOR  CLOUDY    72  67  84 SE3       29.95F
6HR MIN TEMP:  72; 6HR MAX TEMP:  79;

BIG RAPIDS     CLOUDY    68  66  94 CALM      29.98S FOG
6HR MIN TEMP:  68; 6HR MAX TEMP:  70; 6HR PCP:  0.03;

COLDWATER      CLOUDY    69  66  90 E3        29.98F
6HR MIN TEMP:  69; 6HR MAX TEMP:  77;

FREMONT        CLOUDY    68  68 100 CALM      29.96F FOG
HOLLAND        PTCLDY    72  66  81 CALM      29.96F
6HR MIN TEMP:  72; 6HR MAX TEMP:  77;

GRAND RAPIDS   CLOUDY    72  67  84 S6        29.97F
6HR MIN TEMP:  72; 6HR MAX TEMP:  77;

IONIA          FAIR      70  64  82 S5        29.97F
6HR MIN TEMP:  70; 6HR MAX TEMP:  77;

KALAMAZOO      PTCLDY    71  63  75 CALM      29.98F
6HR MIN TEMP:  71; 6HR MAX TEMP:  80;

LUDINGTON      CLOUDY    67  67 100 CALM      29.95F FOG
6HR MIN TEMP:  67; 6HR MAX TEMP:  69;

MARSHALL       CLOUDY    69  67  94 S3        29.98F
6HR MIN TEMP:  69; 6HR MAX TEMP:  77;

MOUNT PLEASANT DRIZZLE   71  65  81 CALM      29.96F
6HR MIN TEMP:  70; 6HR MAX TEMP:  73; 6HR PCP:  0.03;

MUSKEGON       CLOUDY    72  69  90 CALM      29.96F
6HR MIN TEMP:  70; 6HR MAX TEMP:  76; 6HR PCP:  0.09;

SOUTH HAVEN    MOCLDY    72  69  90 CALM      29.95F
$$
MIZ016>042-270700-
NORTHERN LOWER MICHIGAN

CITY           SKY/WX    TMP DP  RH WIND       PRES   REMARKS
ALPENA         RAIN      68  68 100 CALM      29.96F FOG
6HR MIN TEMP:  66; 6HR MAX TEMP:  71; 6HR PCP:  0.03;

BEAVER ISLAND  FOG       61  61 100 CALM      29.98R VSB 1/4
BELLAIRE       LGT RAIN  69  67  94 CALM      29.97S
6HR MIN TEMP:  68; 6HR MAX TEMP:  71;

CADILLAC       CLOUDY    70  67  90 SW5       29.99S FOG
CHARLEVOIX     CLOUDY    67  67 100 NW5       30.00S FOG
6HR MIN TEMP:  67; 6HR MAX TEMP:  72;

FRANKFORT      CLOUDY    70  70 100 CALM      29.96S FOG
GAYLORD        CLOUDY    65  62  90 CALM      29.99F
6HR MIN TEMP:  65; 6HR MAX TEMP:  70; 6HR PCP:  0.29;

GRAYLING       CLOUDY    67  65  94 CALM      29.99F FOG
6HR MIN TEMP:  65; 6HR MAX TEMP:  70;

HARBOR SPRINGS MOCLDY    66  65  95 CALM      29.97S FOG
HOUGHTON LAKE  CLOUDY    70  68  93 W5        30.00S
6HR MIN TEMP:  69; 6HR MAX TEMP:  70; 6HR PCP:  0.02;

MANISTEE       CLOUDY    68  67  96 CALM      29.97S
OSCODA         CLOUDY    69  68  96 CALM      29.96S
6HR MIN TEMP:  69; 6HR MAX TEMP:  69;

PELLSTON       FOG       63  63 100 CALM      29.97S VSB 1/4
6HR MIN TEMP:  63; 6HR MAX TEMP:  71; 6HR PCP:  0.33;

ROGERS CITY    CLOUDY    67  66  97 CALM      29.97S
TRAVERSE CITY  CLOUDY    71  68  90 SW5       29.95F
6HR MIN TEMP:  70; 6HR MAX TEMP:  73;

$$
MIZ007>008-015-270700-
EASTERN UPPER MICHIGAN

CITY           SKY/WX    TMP DP  RH WIND       PRES   REMARKS
KINROSS        FOG       62  62 100 W3        29.95S VSB 1/4
6HR MIN TEMP:  62; 6HR MAX TEMP:  70;

MACKINAC ISLAN FOG       64  64 100 CALM      29.96S VSB 1/4
6HR MIN TEMP:  63; 6HR MAX TEMP:  67;

NEWBERRY       CLEAR     55  54  97 W5        29.96S
6HR MIN TEMP:  55; 6HR MAX TEMP:  70;

S. S. MARIE    CLEAR     58  54  86 CALM      29.94S
6HR MIN TEMP:  58; 6HR MAX TEMP:  72;

MUNISING         N/A     58  57  97 S8        29.96S
6HR MIN TEMP:  58; 6HR MAX TEMP:  74;

$$
MIZ004>006-011>014-085-270700-
CENTRAL UPPER MICHIGAN

CITY           SKY/WX    TMP DP  RH WIND       PRES   REMARKS
MANISTIQUE     CLEAR     55  51  89 CALM      29.96S
6HR MIN TEMP:  55; 6HR MAX TEMP:  71;

ESCANABA       CLEAR     59  59 100 W5        29.98R
6HR MIN TEMP:  59; 6HR MAX TEMP:  74; 6HR PCP:  0.03;

MENOMINEE      CLEAR     66  65  96 N5        29.98
6HR MIN TEMP:  66; 6HR MAX TEMP:  77; 6HR PCP: TRACE;

SAWYER-GWINN   PTCLDY    58  53  84 CALM      30.00S
6HR MIN TEMP:  58; 6HR MAX TEMP:  73;

$$
MIZ001>003-009>011-084-270700-
WESTERN UPPER MICHIGAN

CITY           SKY/WX    TMP DP  RH WIND       PRES   REMARKS
IRON MOUNTAIN  PTCLDY    57  54  89 S3        30.00R
6HR MIN TEMP:  56; 6HR MAX TEMP:  81;

HOUGHTON       CLEAR     59  54  83 NW6       29.99R
6HR MIN TEMP:  59; 6HR MAX TEMP:  76;

COPPER HARBOR    N/A     64  56  75 W3        29.97R
6HR MIN TEMP:  61; 6HR MAX TEMP:  76;

IRONWOOD       CLEAR     58  57  97 CALM      30.04R
6HR MIN TEMP:  58; 6HR MAX TEMP:  77;

$$

ABBREVIATIONS USED IN REMARKS
   TC - TEMPERATURE IN CELSIUS
  WCI - WIND CHILL INDEX
   HX - HEAT INDEX
  VSB - VISIBILITY





USA.gov is the U.S. government's official web portal to all federal, state and local government web resources and services.